YAOGAN 12

导读

YAOGAN 12(遥感十二号)是中国于2011年11月9日发射的遥感卫星,作为我国对地观测体系的重要组成部分,延续了遥感系列卫星的技术路线。它依托空间遥感平台,通过搭载的遥感器对地球开展探测,获取国土资源、农业、环境等领域观测数据,可为灾害监测、资源调查、城市规划等应用领域提供科学数据支撑,服务国民经济建设发展。

基本信息
目录编号:
37875
目录名称:
YAOGAN 12
国际标识:
2011-066B
轨道中心:
EARTH
卫星名称:
YAOGAN 12
卫星全名:
--
卫星状态:
在轨 (已飞行5329 天)
发射日期:
2011-11-09 UTC
国别 :
中国 (CN)
星等 :
--
轨道信息
数据来源 国际轨道数据
星历时间: 2026-06-12T14:49:03+0800
13小时前
查看轨道信息
半长轴: 6864.296km
偏心率: 0.0008271
轨道倾角: 97.115°
近地点辐角 236.379°
升交点赤经 202.083°
平近点角 123.666°
近地点: 480.481km
远地点: 491.837km
周期: 94.331分钟
每日圈数: 15.265423
详细信息
使用方式:
暂无
2D轨道图
3D轨道图
轨道高度分析图
轨道倾角分析图
轨道综合分析图
查看轨道综合分析图